Starlink 35857

operational
NORAD ID: 67186 Int'l Des: 2025-303 Owner: SPXS Country: US Constellation: starlink
LEOCIRCULAR

Über Starlink 35857

Beschreibung wird geladen...

Live-Position

3D-Globus wird geladen...

Nächste Überflüge

Höhenverlauf

Altitude vs Time

uPlot chart will show altitude changes over time

Zweizeiliger Elementsatz

1 67186C 25303Z 25352.76854167 .00684620 00000+0 10033-2 0 3529
2 67186 43.0051 61.7768 0007441 283.3285 271.7486 16.03357758 16
Epoch: 18. Dez. 2025 • Age: 45 hours

Aktueller Status

Höhe 263.7 km
Geschwindigkeit 7.75 km/s
Subsatellitenpunkt -15.14°S, 157.87°W
Startdatum 17. Dez. 2025
Alter 2 days
Typ internet

Technische Details

Klassifizierung Payload
Masse 575.00 kg
Trockenmasse 530.00 kg
Gesamtmasse 575.00 kg
Länge 0.30 m
Durchmesser 4.10 m
Spannweite 29.00 m
Form Box + pan
Hersteller SPXS
Bus-Typ Starlink V2MO
Phasenstatus In Orbit
Besitzer/Staat SPXS/US

Große Konstellationen

Loading constellations...